SendPic.org - надежный и быстрый хостинг изображений и фотографий

Поиск

Ищем
Минимум 3 символа
Автор
Категория
« 1 2 35 6 723 24 25 »
Название Размер Скачан Залит Категория Автор
RakhiSingh_Quarry.zip25.99MB942021-08-27 09:04:55РазноеАноним
Powell_PianoMusic1_7.zip85.48MB1002021-08-27 08:45:25РазноеАноним
JasonSharp_TheTurningCentreOfAStillWorld.zip103.25MB702021-08-27 08:29:49РазноеАноним
HaikuSalut_TheHill_TheLight_TheGhost.zip98.14MB722021-08-27 07:42:57РазноеАноним
HaikuSalut_TheHill_TheLight_TheGhost.zip98.14MB12021-08-27 07:40:27РазноеАноним
SteveHadfield_SeetheWorldAnewVol.1.zip47.14MB502021-08-27 07:23:53РазноеАноним
ChazKnapp_OrganDrunesBsides.zip67.05MB652021-08-27 07:02:10РазноеАноним
EquationsCollective_TheHeliconSessions.zip94.52MB522021-08-27 06:51:35РазноеАноним
Tleb_MusicforPlato.zip61.26MB452021-08-27 06:36:30РазноеАноним
HonestLabour.zip105.29MB792021-08-27 06:19:41РазноеАноним
Grandbruit_L_e__quilibreestne__cessaire.zip88.28MB482021-08-27 05:56:36РазноеАноним
StephenVitiello_ARoomAdrift_6X6_.mp387.28MB572021-08-27 05:35:04РазноеАноним
ErikGriswold_WolfMoon.mp393.2MB612021-08-27 05:27:03РазноеАноним
TheLossOfWilderness.zip230.46MB672021-08-27 00:14:45РазноеАноним
Leo_ABuriedRiver.zip84.07MB62021-08-26 19:58:36РазноеАноним
TheWaves.zip388.23MB472021-08-26 18:27:35РазноеАноним
Kinetic.zip92.02MB572021-08-26 09:40:35РазноеАноним
HackerMindset_Untitled1Untitled2.zip31.58MB402021-08-26 08:16:45РазноеАноним
TheatreExtracts.zip188.68MB462021-08-26 07:04:11РазноеАноним
AlexPaterson_ConnectingTheDot.zip427.11MB52021-08-25 19:57:31РазноеАноним
ExtensionPhone.zip418.16MB692021-08-25 15:07:02РазноеАноним
Stanotte.zip109.85MB702021-08-25 06:40:19РазноеАноним
Civilistj__vel____Civilistj__vel_.zip79.93MB52021-08-25 06:24:40РазноеАноним
LeonDuncan_Fuckarossetastoneformybrainwaves.zip65.01MB52021-08-24 07:26:55РазноеАноним
DoctrinaNatura_Mago.zip53.89MB662021-08-23 15:26:14РазноеАноним
« 1 2 35 6 723 24 25 »